Satellite-Ground Cal/Val Region Overpasses Predictions

Prediction of Satellite NPP Overpassing Cal/Val Region: PacN

Region Location: (Latitude: 15.00, Longitude: 179.40) to (Latitude: 23.50, Longitude: 200.60).

Table of predicted overpasses for the next 14.0 days since TLE Epoch: 3/30/2019
Interval Starting Time Starting Location Ending Time Ending Location
1 04/01/2019 13:36:46 ( 18.83, 180.00) 04/01/2019 13:37:28 ( 16.36, 179.41)
2 04/06/2019 01:12:41 ( 19.19, 179.99) 04/06/2019 01:13:21 ( 21.54, 179.41)
3 04/06/2019 13:41:44 ( 23.48, 179.58) 04/06/2019 13:41:55 ( 22.83, 179.41)


NCC Satellite Cal/Val Overpasses Prediction Service
